Regional Weather Roundup
Issued by NWS

Home | Current Version | Previous Version | Graphics & Text | Print | Product List | Glossary On
Versions: 1 2 3 4 5 6 7 8 9 10 11 12 13 14 15 16 17 18 19 20 21 22 23 24 25 26 27 28 29 30 31 32 33 34 35 36 37 38 39 40 41 42 43 44 45 46 47 48 49 50
000
ASUS43 KDMX 011804
RWRIA

WEATHER ROUNDUP FOR IOWA
NATIONAL WEATHER SERVICE DES MOINES IA
  ISSUED BY NWS QUAD CITIES IA IL
1200 PM CST SUN FEB 01 2015

NOTE: "FAIR" INDICATES FEW OR NO CLOUDS BELOW 12,000 FEET WITH NO
SIGNIFICANT WEATHER AND/OR OBSTRUCTIONS TO VISIBILITY.

* - THESE STATIONS ARE NOT NWS STATIONS...THUS NOT UNDER NWS
QUALITY CONTROL.  THEY ALSO DO NOT REPORT WEATHER SUCH
AS PRECIPITATION OR FOG.

IAZ001>003-012>014-020>022-031>034-043>046-011900-
   NORTHWEST IOWA

CITY           SKY/WX    TMP DP  RH WIND       PRES   REMARKS
CARROLL *      SNOW      18  14  86 N28G35    30.00R VSB 1/2 WCI  -1
CHEROKEE *     LGT SNOW  14  11  87 N23G30    30.11S WCI  -4
6HR MIN TEMP:  14; 6HR MAX TEMP:  19;

DENNISON *     HVY RAIN  18  16  93 N18G37    30.02R VSB 1/2 WCI   2
SIOUX CITY     HAZE      13   8  81 N26       30.17R VSB 1   WCI  -7
6HR MIN TEMP:  13; 6HR MAX TEMP:  20; 6HR PCP:  0.04;

SPENCER        LGT SNOW  14   9  80 N25G35    30.11S VSB 3/4 WCI  -5
6HR MIN TEMP:  14; 6HR MAX TEMP:  18; 6HR PCP: TRACE;

$$

IAZ055>058-069>071-079>083-090>094-011900-
   SOUTHWEST IOWA

CITY           SKY/WX    TMP DP  RH WIND       PRES   REMARKS
ATLANTIC *     SNOW      21  18  86 N25G32    29.96R VSB 1/2 WCI   4
AUDUBON *      SNOW      19  16  86 N20G26    29.98R VSB 1/2 WCI   4
CLARINDA *     MIX PCPN  23  21  93 N23G32    29.92R VSB 1   WCI   7
COUNCIL BLFS * LGT SNOW  18  16  93 N25G37    30.00R VSB 3/4 WCI  -1
CRESTON *      MIX PCPN  23  21  93 N28G35    29.85R VSB 1/2 WCI   6
HARLAN *       SNOW      18  18 100 N26G35    30.03R VSB 1/2 WCI  -1
LAMONI         LGT SNOW  31  29  92 NE23G33   29.77S VSB 3/4 WCI  18
6HR MIN TEMP:  31; 6HR MAX TEMP:  33; 6HR PCP:  0.10;

$$

IAZ047>049-059>061-072>074-084-011900-
   CENTRAL IOWA

CITY           SKY/WX    TMP DP  RH WIND       PRES   REMARKS
AMES           FOG       18  14  84 NE17G33   29.95R VSB 1   WCI   3
6HR MIN TEMP:  18; 6HR MAX TEMP:  30; 6HR PCP:  0.02;

BOONE *        SNOW      18  16  93 N26G32    29.94R VSB 1/4 WCI  -1
CHARITON *     SNOW      25  23  93 N20G32    29.81R VSB 1/2 WCI  11
DES MOINES     SNOW      22  18  85 NE25G32   29.90R VSB 1/2 WCI   5
6HR MIN TEMP:  22; 6HR MAX TEMP:  34; 6HR PCP:  0.10;

MARSHALLTOWN   SNOW      18  15  88 NE26G36   29.91R VSB 1/4 WCI  -1
6HR MIN TEMP:  18; 6HR MAX TEMP:  29; 6HR PCP:  0.01;

PERRY *        LGT SNOW  19  17  90 N20G26    29.96R VSB 3/4 WCI   4
6HR MIN TEMP:  19; 6HR MAX TEMP:  32;

$$

IAZ004>006-015-016-023>025-035-036-011900-
   NORTH CENTRAL IOWA

CITY           SKY/WX    TMP DP  RH WIND       PRES   REMARKS
ALGONA *       SNOW      16  12  86 N28       30.06F VSB 1/2 WCI  -4
CLARION *      SNOW      16  14  93 NE29G37   30.00S VSB 1/4 WCI  -4
ESTHERVILLE    FOG       13  10  88 N24       30.11S VSB 1/2 WCI  -7
6HR MIN TEMP:  13; 6HR MAX TEMP:  16; 6HR PCP: TRACE;

FORT DODGE *   CLOUDY    18  12  79 CALM      30.03R VSB 3/4
6HR MIN TEMP:  18; 6HR MAX TEMP:  25;

MASON CITY     LGT SNOW  15  11  83 NE24G35   30.04F VSB 1   WCI  -4
6HR MIN TEMP:  15; 6HR MAX TEMP:  20; 6HR PCP:  0.04;

WEBSTER CITY * LGT SNOW  18  18 100 N18G33    29.97R VSB 3/4 WCI   2
IOWA FALLS *   LGT SNOW  18  14  85 NE24G35   29.96S WCI   0
6HR MIN TEMP:  17; 6HR MAX TEMP:  27;

$$

IAZ007>011-017>019-026>030-037>042-050>054-066-011900-
   NORTHEAST IOWA

CITY           SKY/WX    TMP DP  RH WIND       PRES   REMARKS
CEDAR RAPIDS   SNOW      20  18  92 NE24G36   29.85F VSB 1/4 WCI   3
6HR MIN TEMP:  20; 6HR MAX TEMP:  29; 6HR PCP:  0.01;

CHARLES CITY * LGT SNOW  16  12  86 NE22G35   30.00F VSB 3/4 WCI  -2
CLINTON *      CLOUDY   N/A N/A N/A NE32G38   29.83F VSB 1/2
                                      6HR PCP:  0.02;

DECORAH *      LGT SNOW  14  10  85 NE13G26   30.00F VSB 1   WCI   0
DUBUQUE        HVY SNOW  18  14  84 NE23G33   29.88F VSB 1/4 WCI   0
6HR MIN TEMP:  18; 6HR MAX TEMP:  25; 6HR PCP:  0.12;

WATERLOO       LGT SNOW  17  14  88 NE22G31   29.95F VSB 3/4 WCI   0
6HR MIN TEMP:  17; 6HR MAX TEMP:  26; 6HR PCP:  0.07;

$$

IAZ064-065-067-068-078-011900-
   EAST CENTRAL IOWA

CITY           SKY/WX    TMP DP  RH WIND       PRES   REMARKS
DAVENPORT      SNOW      24  21  88 NE25G35   29.80F VSB 1/4 WCI   8
6HR MIN TEMP:  24; 6HR MAX TEMP:  32; 6HR PCP:  0.06;

IOWA CITY      SNOW      23  20  88 NE20G32   29.85F VSB 1/2 WCI   8
6HR MIN TEMP:  23; 6HR MAX TEMP:  33; 6HR PCP:  0.06;

QUAD CITIES    SNOW      27  23  85 NE18G25   29.78F VSB 1/2 WCI  14
6HR MIN TEMP:  27; 6HR MAX TEMP:  32; 6HR PCP:  0.23;

$$

IAZ062-063-075>077-085>089-095>099-011900-
   SOUTHEAST IOWA

CITY           SKY/WX    TMP DP  RH WIND       PRES   REMARKS
BURLINGTON     LGT SNOW  33  32  96 N13       29.72F VSB 1   WCI  24
6HR MIN TEMP:  32; 6HR MAX TEMP:  33; 6HR PCP:  0.11;

FAIRFIELD *    CLOUDY    28  25  86 NE25G31   29.76F FOG     WCI  14
FORT MADISON * LGT SNOW  32  32 100 NE7       29.72F WCI  26
KEOKUK *       LGT RAIN  34  32  93 NE6       29.70F WCI  29
OTTUMWA        LGT SNOW  27  24  89 NE17G31   29.78S VSB 3/4 WCI  14
6HR MIN TEMP:  27; 6HR MAX TEMP:  32; 6HR PCP:  0.06;

WASHINGTON *   CLOUDY    27  27 100 NE24G30   29.78S FOG     WCI  12
$$

ABBREVIATIONS USED IN REMARKS
   TC - TEMPERATURES IN CELSIUS
  WCI - WIND CHILL INDEX
   HX - HEAT INDEX
  VSB - VISIBILITY
$$


USA.gov is the U.S. government's official web portal to all federal, state and local government web resources and services.